Погода в Ульдурге

Россия / Республика Бурятия     52°13′19″N   110°32′19″E
темп.,
°C
ветер,
м/с
пор.,
м/с
влажн.,
%
обл.,
%
осадки,
мм/ч
давл.,
гПа
погр.,
м
24 июня, чт
чт2423:00+17всв127399 0.3 100614
02:00+16в11796 0.3 100615
05:00+14св22835 0.0 100519
08:00+19св336478 0.0 1004415
11:00+25ююв23423 0.0 10011595
14:00+24юв564854 0.2 1000882
17:00+19ссв2271100 0.9 1001154
20:00+20св116833 1.0 100115
25 июня, пт
пт2523:00+16ссв228375 0.5 100241
02:00+14в11895 0.5 100310
05:00+13сз119158 0.0 100311
08:00+18сз117371 0.0 1003488
11:00+23з125182 0.0 10021454
14:00+25зсз3344100 0.0 10001296
17:00+24юв1148100 0.0 1000295
20:00+22всв1155100 0.0 100111
26 июня, сб
сб2623:00+17с016584 0.0 100311
02:00+15ссз117694 0.0 100411
05:00+14сз018088 0.0 100510
08:00+19юз116013 0.0 1005354
11:00+25зсз23335 0.0 10041423
14:00+29з23230 0.0 10022282
17:00+30юз35212 0.0 10012770
20:00+23с510320 0.0 1003193
27 июня, вс
вс2723:00+17зсз22420 0.0 100511
02:00+14зсз22548 0.0 100711
05:00+13з11665 0.0 100811
08:00+19з235266 0.0 1008363
11:00+25з233840 0.0 10061039
14:00+29з242699 0.0 10041948
17:00+29зюз332995 0.0 10032001
20:00+24сз2244100 0.0 100315
28 июня, пн
пн2823:00+18с11605 0.0 100511
02:00+15ссв117047 0.1 100611
05:00+15св117199 0.0 100511
08:00+20всв34535 0.0 1004402
11:00+27ююв34412 0.2 1002929
14:00+33ю362347 0.2 9973560
17:00+19ююв1384100 2.4 100085
20:00+19юз1181100 2.9 100115